Zurück zum Katalog

FENGYUN 1C DEB

AktivSSO
NORAD 45527·DEBRIS·🇨🇳 China

Gestartet May 10, 1999 von Taiyuan Satellite Launch Center

Loading…

Nächste Überflüge (nächste 24 Stunden)

TLE

AktuellSource: Space-Track

Epoche: Sep 14, 2026, 03:45 UTC

1 45527U 99025EYS 26257.15653387  .00001992  00000-0  83771-3 0  9998
2 45527  98.7203 327.4450 0055064 146.5405 213.9274 14.26108359435036

Verfolge FENGYUN 1C DEB in Echtzeit mit AllMySat

Download on the App Store